Regional Weather Roundup
Issued by NWS Kansas City/Pleasant Hill, MO

Home | Current Version | Previous Version | Text Only | Print | Product List | Glossary On
Versions: 1 2 3 4 5 6 7 8 9 10 11 12 13 14 15 16 17 18 19 20 21 22 23 24 25 26 27
000
ASUS43 KEAX 232210
RWREAX

WEATHER ROUNDUP FOR EASTERN KANSAS AND NORTHWEST MISSOURI
NATIONAL WEATHER SERVICE KANSAS CITY/PLEASANT HILL MO
500 PM CDT TUE MAY 23 2017

KSZ040-057-103>105-MOZ028-029-037-043-232300-
...KANSAS CITY METROPOLITAN AREA...

CITY           SKY/WX    TMP DP  RH WIND       PRES   REMARKS
K.C. INTL      PTSUNNY   65  48  54 NW7       29.80
K.C. DOWNTOWN  CLOUDY    63  46  54 W6        29.80S
LEES SUMMIT    CLOUDY    59  51  75 N3        29.81S
OLATHE - IXD   LGT RAIN  58  49  72 W9G24     29.82
OLATHE - OJC   CLOUDY    63  46  54 N15       29.81
LAWRENCE       PTSUNNY   65  51  60 N7        29.81

$$

MOZ001>008-011>017-020>025-030>033-038>040-044>046-053-054-232300-
...NORTHERN AND CENTRAL MISSOURI...

CITY           SKY/WX    TMP DP  RH WIND       PRES   REMARKS
ST. JOSEPH     CLOUDY    62  47  57 N16       29.81
MOSBY          LGT RAIN  61  45  55 NW5       29.80S
WARRENSBURG    CLOUDY    63  45  51 NW12      29.79S
WHITEMAN AFB   NOT AVBL
CLINTON        PTSUNNY   66  46  48 NW10      29.79F
SEDALIA        PTSUNNY   66  50  56 NW15G22   29.78
WARSAW         NOT AVBL
CHILLICOTHE    NOT AVBL
KIRKSVILLE     FAIR      65  48  54 NW16G23   29.75F

$$

MOZ041-047>049-056>058-063>065-088>090-097-232300-
...EASTERN AND SOUTHERN MISSOURI...

CITY           SKY/WX    TMP DP  RH WIND       PRES   REMARKS
ST. LOUIS INTL NOT AVBL
SPIRIT OF STL  CLOUDY    62  55  77 NW15      29.73R
COLUMBIA       FAIR      65  49  56 NW12      29.75F
JEFFERSON CITY FAIR      69  48  47 NW13G21   29.75
ROLLA          CLOUDY    61  54  77 N9        29.74S
OSAGE BEACH    FAIR      65  51  60 VRB7      29.77F
SPRINGFIELD    FAIR      66  51  58 N15       29.79
BRANSON        LGT RAIN  64  55  72 NW13G18   29.79S
JOPLIN         FAIR      69  49  48 N14       29.81F

$$

IAZ060-094-KSZ022-034>040-054-083-096-NEZ052-066-093-232300-
...KANSAS...SOUTHEAST NEBRASKA AND IOWA...

CITY           SKY/WX    TMP DP  RH WIND       PRES   REMARKS
TOPEKA         PTSUNNY   57  51  80 NW18G28   29.83R
MANHATTAN      CLOUDY    62  48  60 NW7       29.86
EMPORIA        CLOUDY    60  47  61 W8        29.85
CHANUTE        CLOUDY    66  44  45 NW13      29.82
WICHITA        PTSUNNY   64  46  52 N13       29.88
OMAHA          PTSUNNY   57  44  62 NW14G25   29.83
LINCOLN        CLOUDY    59  44  57 NW22      29.87F
LAMONI         PTSUNNY   59  45  59 NW12      29.78
DES MOINES     PTSUNNY   61  44  53 NW12      29.76S

$$





USA.gov is the U.S. government's official web portal to all federal, state and local government web resources and services.